FloripaSat 1
1 44885U 19093G   25191.72952877  .00003764  00000-0  31721-3 0  9993
2 44885  97.8182 279.3973 0012863 100.9343 259.3327 14.98740661301412
RS-44
1 44909U 19096E   25191.51340307  .00000035  00000-0  99266-4 0  9996
2 44909  82.5196 206.7259 0216611 223.0317 135.3671 12.79741855258645
UPMSat 2
1 46276U 20061E   25191.45803298  .00052944  00000-0  39396-3 0  9998
2 46276  97.2427 266.9642 0002077 149.2079 210.9307 15.72660317270314
SALSAT
1 46495U 20068K   25191.49734985  .00004343  00000-0  18718-3 0  9993
2 46495  97.8613 170.9639 0012798  60.5202 299.7309 15.23084915263234
CubeSX-Sirius-HSE
1 47951U 21022V   25157.62701764  .07883385  25648-5  89537-3 0  9993
2 47951  97.4004  72.1904 0010275 223.9924 136.0557 16.36879307233400
CubeSX-HSE
1 47952U 21022W   25157.69972699  .06655353  25454-5  93288-3 0  9992
2 47952  97.3980  72.5414 0010307 219.3637 140.6911 16.34906352233436
GRBAlpha
1 47959U 21022AD  25160.45426279  .07940347  25506-5  90589-3 0  9995
2 47959  97.3899  75.6235 0011032 227.2558 132.7812 16.36806138232695
TUBIN
1 48900U 21059X   25191.73542458  .00025567  00000-0  28476-3 0  9999
2 48900  97.6753   3.5531 0004196 121.5381 238.6287 15.62827076224905
LEDSAT
1 49069U 21073D   25191.74790971  .00047869  00000-0  49491-3 0  9997
2 49069  97.3877 274.6760 0006884 313.1776  46.8907 15.64587465216304
CUTE
1 49263U 21088D   25191.78503453  .00013278  00000-0  25599-3 0  9990
2 49263  97.4497 268.9651 0009364 125.1360 235.0771 15.47932250209254
TeikyoSat 4
1 49396U 21102B   25191.61146262  .00000960  00000-0  66704-4 0  9995
2 49396  97.4085 228.9186 0013358  33.9798 326.2283 15.07746405201223
Z-Sat
1 49399U 21102E   25191.73737215  .00002477  00000-0  13710-3 0  9998
2 49399  97.3781 232.3300 0017811   1.8860 358.2437 15.14623130201691
KOSEN 1
1 49402U 21102H   25191.60206023  .00003830  00000-0  17729-3 0  9995
2 49402  97.3686 235.8505 0014704 336.2205  23.8350 15.20625113202006
HO-113
1 50466U 21131B   25191.94149172  .00000298  00000-0  10691-3 0  9993
2 50466  98.5109 281.1417 0005016  54.5280 305.6376 14.40843360185967
Foresail-1
1 52766U 22057AL  25176.64799660  .13857605  27391-5  25307-3 0  9992
2 52766  97.5832 331.2310 0012137 233.7199 258.4922 16.46795272172486
SNUGLITE 2
1 52899U 22065F   25191.33041029  .00000666  00000-0  13844-3 0  9999
2 52899  98.1724 333.0112 0008025  26.5531 333.6080 14.63269675160982
UmKA 1 (RS40S)
1 57172U 23091G   25191.77145303  .00003281  00000-0  17591-3 0  9995
2 57172  97.5564 246.9935 0013314 221.2430 138.7797 15.15625150112203
CubeBel-2 (EU11S)
1 57175U 23091K   25191.78363927  .00004878  00000-0  23090-3 0  9997
2 57175  97.5563 248.3456 0010992 227.3414 132.6895 15.19778692112292
VERONIKA
1 58261U 23174F   25191.71675754  .00162428  00000-0  85451-3 0  9998
2 58261  97.4089 279.9777 0006087 245.8153 114.2479 15.80234139 93587
ENSO
1 58470U 23185J   25191.73582696  .00036044  00000-0  46604-3 0  9997
2 58470  97.3725 267.9204 0004640 322.9476  37.1459 15.58845597 89885
EIRSAT-1
1 58472U 23185L   25191.73507690  .00097612  00000-0  67812-3 0  9992
2 58472  97.3657 270.4390 0003339 283.7029  76.3864 15.74122691 90055
SONATE-2
1 59112U 24043Q   25191.63069964  .00009242  00000-0  26066-3 0  9992
2 59112  97.5172 323.4555 0010620  10.6441 349.5025 15.36584367 75102
MO-122
1 60209U 24125G   25191.83294553  .00014459  00000-0  39868-3 0  9998
2 60209  97.2750  43.1144 0019162  29.9410 330.3161 15.37027149 56759
GRBBeta
1 60237U 24128C   25191.74359501  .00002208  00000-0  17464-3 0  9994
2 60237  61.9927 330.8807 0054091  64.3114 296.3549 15.02854667 54888
Curium One
1 60242U 24128H   25191.59428246  .00003827  00000-0  27131-3 0  9996
2 60242  61.9829 329.2275 0053983  60.5194 300.1267 15.05488484 54908
ROBUSTA-3A
1 60243U 24128J   25191.73955086  .00003741  00000-0  26917-3 0  9996
2 60243  61.9899 329.6517 0053043  58.2602 302.3644 15.05014284 54911
CatSat
1 60246U 24125J   25191.54837255  .00005450  00000-0  18052-3 0  9992
2 60246  97.2561  41.6910 0041356 346.1940  13.8167 15.30876480 54723
HYPERVIEW-1G (RS66S)
1 61772U 24199AP  25191.75061933  .00011761  00000-0  33098-3 0  9992
2 61772  97.3494  60.5599 0015195  83.5099 276.7875 15.36513973 81745
AO-123
1 61781U 24199AY  25191.74107316  .00003835  00000-0  13957-3 0  9992
2 61781  97.3510  59.0924 0017533  88.0996 272.2252 15.28692538 81648
ZIMSAT 2
1 61783U 24199BA  25191.81948736  .00021126  00000-0  48628-3 0  9997
2 61783  97.3465  61.4960 0014738  81.0622 279.2293 15.42537027 84966
HADES-R (SO-124)
1 62690U 25009CK  25191.47842684  .00019532  00000-0  65553-3 0  9997
2 62690  97.4091 272.2003 0001442  11.5562 348.5712 15.30911495 26873
HYDRA-T
1 62692U 25009CM  25191.19691455  .00021736  00000-0  72249-3 0  9995
2 62692  97.4090 271.9658 0001170   7.2663 352.8595 15.31201174 26838
JINJUSat 1B
1 63210U 25052A   25191.18855422  .00006508  00000-0  29502-3 0  9999
2 63210  97.4389  84.9305 0003587 187.9046 172.2134 15.21177664 17908
NUSHSAT 1
1 63211U 25052B   25191.44138468  .00006856  00000-0  30799-3 0  9999
2 63211  97.4378  85.1892 0003418 191.5533 168.5625 15.21467572 17943
TEVEL2-4
1 63213U 25052D   25191.65858595  .00006574  00000-0  29821-3 0  9995
2 63213  97.4294  85.2321 0002094 204.5088 155.6048 15.21149771 17976
TEVEL2-5
1 63214U 25052E   25191.46224913  .00006482  00000-0  29433-3 0  9993
2 63214  97.4294  85.0362 0002124 204.4575 155.6560 15.21123554 17941
TEVEL2-6
1 63215U 25052F   25191.59677341  .00006334  00000-0  28802-3 0  9990
2 63215  97.4295  85.1640 0002088 207.1685 152.9442 15.21084695 17967
TEVEL2-1
1 63217U 25052H   25191.61233614  .00005666  00000-0  25966-3 0  9991
2 63217  97.4270  85.1056 0001848 231.5353 128.5717 15.20860083 17965
TEVEL2-2
1 63218U 25052J   25191.67840897  .00005722  00000-0  26215-3 0  9996
2 63218  97.4270  85.1713 0001845 232.2823 127.8246 15.20863559 17974
TEVEL2-3
1 63219U 25052K   25191.61285695  .00005667  00000-0  25975-3 0  9990
2 63219  97.4270  85.1058 0001841 233.1602 126.9465 15.20855730 17962
TEVEL2-8
1 63237U 25052AD  25191.70302490  .00005750  00000-0  27288-3 0  9995
2 63237  97.4335  85.0834 0006078 264.3746  95.6795 15.19633744 17962
TEVEL2-9
1 63238U 25052AE  25191.44325059  .00006220  00000-0  29548-3 0  9997
2 63238  97.4338  84.8221 0006190 266.1156  93.9371 15.19563777 17928
TEVEL2-7
1 63239U 25052AF  25191.44588901  .00006248  00000-0  29709-3 0  9994
2 63239  97.4336  84.8171 0006171 266.4224  93.6305 15.19530860 17920
HYDRA-W
1 63490U 25052BL  25191.60426887  .00014199  00000-0  57878-3 0  9997
2 63490  97.4282  85.4419 0009195 259.8972 100.1228 15.24528736 17985
HADES-ICM (SO-125)
1 63492U 25052BN  25191.49734867  .00012677  00000-0  52497-3 0  9997
2 63492  97.4293  85.2876 0009488 265.8022  94.2130 15.24019200 17966
